711  
ASUS42 KKEY 281910  
RWRKEY  
 
FLORIDA REGIONAL WEATHER ROUNDUP FOR THE FLORIDA KEYS  
NATIONAL WEATHER SERVICE KEY WEST FLORIDA  
300 PM EDT THU MAY 28 2015  
   
..SOUTH FLORIDA AND THE KEYS
 
 
 
CITY SKY/WX TMP DP RH WIND PRES REMARKS
 
FORT MYERS PTSUNNY 89 59 36 E15G22 30.06F  
SW REGIONAL AP PTSUNNY 88 58 36 E15G22 30.06F  
NAPLES MOSUNNY 88 59 37 E15G25 30.05F  
MIAMI PTSUNNY 86 64 47 E13 30.07F  
WEST KENDALL PTSUNNY 84 64 50 E14 30.07F  
HOMESTEAD MOSUNNY 82 67 60 NE15 30.07F  
MARATHON PTSUNNY 85 64 49 E12 30.06F  
BOCA CHICA NAS MOSUNNY 86 65 49 E16 30.05F  
KEY WEST INTL SUNNY 85 66 53 E16 30.06F  
   
..INTERNATIONAL WEATHER
 
 
 
CITY SKY/WX TMP DP RH WIND PRES REMARKS
 
NASSAU BAHAMAS MOSUNNY 81 64 57 E12 30.06F  
CANCUN MEXICO MOSUNNY 90 73 58 E12 30.00F HX 98  
COZUMEL MEXICO MOSUNNY 84 72 65 E13 29.99F  
 
ADJACENT COASTAL WATERS...  
 
STATION/POSITION TIME SKY/WX TEMP WIND PRES WAVE
 
AIR SEA DIR/SP/G HT/PER  
(UTC) (F) (DEG/KT/KT) (MB) (FT/S)  
PULASKI SHOAL LI 1800 80 80/ 14/ 16 1018.1F  
SAND KEY 1850 80 90/ 17/ 19 1017.6F  
SOMBRERO KEY 1900 81 80/ 18/ 19 1018.1F  
LONG KEY 1800 80 82 90/ 11/ 13 1019.1F  
MOLASSES REEF 1900 79 82 80/ 15/ 16 1017.9F  
FOWEY ROCKS NOT AVBL  
 

 
 
CLICK HERE TO GO TO PREVIOUS BULLETINS.

The Nexlab FL Page Main Text Page